Time,TemperatureF,DewpointF,PressureIn,WindDirection,WindDirectionDegrees,WindSpeedMPH,WindSpeedGustMPH,Humidity,HourlyPrecipIn,Conditions,Clouds,dailyrainin,SolarRadiationWatts/m^2,SoftwareType,DateUTC
2013-09-04 09:22:00,75.0,64.0,-100.00,NNE,24,3.0,6.0,68,0.00,,,0.50,116.000000,,2013-09-04 13:22:00,
2013-09-04 10:52:00,81.0,66.0,-100.00,ENE,57,4.0,8.0,61,0.00,,,0.50,505.000000,,2013-09-04 14:52:00,
2013-09-04 11:02:00,81.0,66.0,-100.00,ENE,57,4.0,8.0,61,0.00,,,0.50,505.000000,,2013-09-04 15:02:00,
2013-09-04 11:12:00,81.0,66.0,-100.00,ENE,57,4.0,8.0,61,0.00,,,0.50,505.000000,,2013-09-04 15:12:00,
2013-09-04 11:22:00,81.0,66.0,-100.00,ENE,57,4.0,8.0,61,0.00,,,0.50,505.000000,,2013-09-04 15:22:00,
2013-09-04 11:53:00,82.0,67.0,-100.00,ENE,59,4.0,8.0,61,0.00,,,0.50,709.000000,,2013-09-04 15:53:00,
2013-09-04 12:04:00,82.0,67.0,-100.00,ENE,59,4.0,8.0,61,0.00,,,0.50,709.000000,,2013-09-04 16:04:00,
2013-09-04 12:12:00,82.0,67.0,-100.00,ENE,59,4.0,8.0,61,0.00,,,0.50,709.000000,,2013-09-04 16:12:00,
2013-09-04 12:23:00,82.0,67.0,-100.00,ENE,59,4.0,8.0,61,0.00,,,0.50,709.000000,,2013-09-04 16:23:00,
2013-09-04 12:53:00,82.0,67.0,-100.00,NE,56,4.0,8.0,60,0.00,,,0.50,820.000000,,2013-09-04 16:53:00,
2013-09-04 13:03:00,82.0,67.0,-100.00,NE,56,4.0,8.0,60,0.00,,,0.50,820.000000,,2013-09-04 17:03:00,
2013-09-04 13:13:00,82.0,67.0,-100.00,NE,56,4.0,8.0,60,0.00,,,0.50,820.000000,,2013-09-04 17:13:00,
2013-09-04 13:23:00,82.0,67.0,-100.00,NE,56,4.0,8.0,60,0.00,,,0.50,820.000000,,2013-09-04 17:23:00,
2013-09-04 13:53:00,83.0,67.0,-100.00,East,97,5.0,9.0,58,0.00,,,0.50,871.000000,,2013-09-04 17:53:00,
2013-09-04 14:02:00,83.0,67.0,-100.00,East,97,5.0,9.0,58,0.00,,,0.50,871.000000,,2013-09-04 18:02:00,
2013-09-04 14:13:00,83.0,67.0,-100.00,East,97,5.0,9.0,58,0.00,,,0.50,871.000000,,2013-09-04 18:13:00,
2013-09-04 14:22:00,83.0,67.0,-100.00,East,97,5.0,9.0,58,0.00,,,0.50,871.000000,,2013-09-04 18:22:00,
2013-09-04 14:52:00,83.0,66.0,-100.00,East,98,4.0,7.0,57,0.00,,,0.50,841.000000,,2013-09-04 18:52:00,
2013-09-04 15:02:00,83.0,66.0,-100.00,East,98,4.0,7.0,57,0.00,,,0.50,841.000000,,2013-09-04 19:02:00,
2013-09-04 15:11:00,83.0,66.0,-100.00,East,98,4.0,7.0,57,0.00,,,0.50,841.000000,,2013-09-04 19:11:00,
2013-09-04 15:22:00,83.0,66.0,-100.00,East,98,4.0,7.0,57,0.00,,,0.50,841.000000,,2013-09-04 19:22:00,
2013-09-04 15:53:00,83.0,67.0,-100.00,East,82,4.0,7.0,58,0.00,,,0.50,765.000000,,2013-09-04 19:53:00,
2013-09-04 16:02:00,83.0,67.0,-100.00,East,82,4.0,7.0,58,0.00,,,0.50,765.000000,,2013-09-04 20:02:00,
2013-09-04 16:12:00,83.0,67.0,-100.00,East,82,4.0,7.0,58,0.00,,,0.50,765.000000,,2013-09-04 20:12:00,
2013-09-04 16:22:00,83.0,67.0,-100.00,East,82,4.0,7.0,58,0.00,,,0.50,765.000000,,2013-09-04 20:22:00,
2013-09-04 16:54:00,83.0,67.0,-100.00,East,89,3.0,7.0,58,0.00,,,0.50,632.000000,,2013-09-04 20:54:00,
2013-09-04 17:02:00,83.0,67.0,-100.00,East,89,3.0,7.0,58,0.00,,,0.50,632.000000,,2013-09-04 21:02:00,
2013-09-04 17:12:00,83.0,67.0,-100.00,East,89,3.0,7.0,58,0.00,,,0.50,632.000000,,2013-09-04 21:12:00,
2013-09-04 17:22:00,83.0,67.0,-100.00,East,89,3.0,7.0,58,0.00,,,0.50,632.000000,,2013-09-04 21:22:00,
2013-09-04 17:54:00,82.0,66.0,-100.00,East,88,5.0,7.0,59,0.00,,,0.50,404.000000,,2013-09-04 21:54:00,
2013-09-04 18:04:00,82.0,66.0,-100.00,East,88,5.0,7.0,59,0.00,,,0.50,404.000000,,2013-09-04 22:04:00,
2013-09-04 18:14:00,82.0,66.0,-100.00,East,88,5.0,7.0,59,0.00,,,0.50,404.000000,,2013-09-04 22:14:00,
2013-09-04 18:23:00,82.0,66.0,-100.00,East,88,5.0,7.0,59,0.00,,,0.50,404.000000,,2013-09-04 22:23:00,
2013-09-04 21:12:00,79.0,66.0,-100.00,ESE,119,4.0,8.0,64,0.00,,,0.02,1.000000,,2013-09-05 01:12:00,
2013-09-04 21:22:00,79.0,66.0,-100.00,ESE,119,4.0,8.0,64,0.00,,,0.02,1.000000,,2013-09-05 01:22:00,